EN

Hourly Weather Paradyz

Today, 1 March, Monday

Time Temperature Precipitation Wind Pressure Humidity
00:00 +1°C° 0 mm 3 mps 770 mmHg 96%
01:00 +1°C° 0 mm 3 mps 770 mmHg 98%
02:00 +1°C° 0 mm 3 mps 770 mmHg 98%
03:00 +1°C° 0 mm 3 mps 770 mmHg 98%
04:00 +1°C° 0 mm 3 mps 770 mmHg 97%
05:00 0°C° 0 mm 4 mps 770 mmHg 97%
06:00 0°C° 0 mm 4 mps 770 mmHg 96%
07:00 0°C° 0 mm 4 mps 770 mmHg 97%
08:00 +1°C° 0 mm 4 mps 770 mmHg 93%
09:00 +3°C° 0 mm 4 mps 770 mmHg 89%
10:00 +4°C° 0 mm 4 mps 770 mmHg 85%
11:00 +5°C° 0 mm 5 mps 770 mmHg 80%
12:00 +6°C° 0 mm 5 mps 770 mmHg 76%
13:00 +7°C° 0 mm 6 mps 770 mmHg 71%
14:00 +7°C° 0 mm 6 mps 770 mmHg 71%
15:00 +6°C° 0 mm 7 mps 770 mmHg 70%
16:00 +6°C° 0 mm 7 mps 769 mmHg 70%
17:00 +5°C° 0 mm 7 mps 769 mmHg 73%
18:00 +4°C° 0 mm 7 mps 769 mmHg 77%
19:00 +3°C° 0 mm 7 mps 769 mmHg 80%
20:00 +2°C° 0 mm 7 mps 769 mmHg 81%
21:00 +2°C° 0 mm 7 mps 769 mmHg 82%
22:00 +2°C° 0 mm 7 mps 769 mmHg 84%
23:00 +2°C° 0 mm 7 mps 769 mmHg 85%

Tomorrow, 2 March, Tuesday

Time Temperature Precipitation Wind Pressure Humidity
00:00 +2°C° 0 mm 7 mps 769 mmHg 86%
01:00 0°C° 0 mm 7 mps 769 mmHg 87%
02:00 +2°C° 0 mm 7 mps 768 mmHg 87%
03:00 +2°C° 0 mm 7 mps 768 mmHg 87%
04:00 +1°C° 0 mm 8 mps 767 mmHg 87%
05:00 0°C° 0 mm 7 mps 768 mmHg 88%
06:00 0°C° 0 mm 7 mps 768 mmHg 90%
07:00 +1°C° 0 mm 6 mps 768 mmHg 91%
08:00 +2°C° 0 mm 6 mps 768 mmHg 89%
09:00 +3°C° 0 mm 6 mps 768 mmHg 86%
10:00 +4°C° 0 mm 6 mps 768 mmHg 83%
11:00 +4°C° 0 mm 6 mps 769 mmHg 81%
12:00 +6°C° 0 mm 5 mps 769 mmHg 80%
13:00 +6°C° 0 mm 5 mps 769 mmHg 78%
14:00 +6°C° 0 mm 4 mps 769 mmHg 79%
15:00 +6°C° 0 mm 4 mps 769 mmHg 80%
16:00 +5°C° 0 mm 3 mps 769 mmHg 81%
17:00 +4°C° 0 mm 3 mps 769 mmHg 85%
18:00 +4°C° 0 mm 2 mps 770 mmHg 89%
19:00 +3°C° 0 mm 2 mps 770 mmHg 94%
20:00 +4°C° 0 mm 1 mps 770 mmHg 93%
21:00 +4°C° 0 mm 1 mps 770 mmHg 93%
22:00 +2°C° 0 mm 0 mps 770 mmHg 93%
23:00 +3°C° 0 mm 1 mps 770 mmHg 92%

Day after tomorrow, 3 March, Wednesday

Time Temperature Precipitation Wind Pressure Humidity
00:00 +3°C° 0 mm 1 mps 770 mmHg 91%
01:00 +3°C° 0 mm 1 mps 770 mmHg 90%
02:00 +2°C° 0 mm 2 mps 770 mmHg 90%
03:00 +2°C° 0 mm 2 mps 770 mmHg 90%
04:00 +2°C° 0 mm 2 mps 769 mmHg 90%
05:00 +2°C° 0 mm 2 mps 769 mmHg 91%
06:00 +1°C° 0 mm 2 mps 769 mmHg 92%
07:00 +1°C° 0 mm 2 mps 768 mmHg 93%
08:00 +2°C° 0 mm 3 mps 768 mmHg 88%
09:00 +3°C° 0 mm 3 mps 767 mmHg 83%
10:00 +4°C° 0 mm 3 mps 767 mmHg 78%
11:00 +5°C° 0 mm 3 mps 767 mmHg 74%
12:00 +7°C° 0 mm 3 mps 766 mmHg 69%
13:00 +8°C° 0 mm 3 mps 766 mmHg 65%
14:00 +9°C° 0 mm 3 mps 765 mmHg 64%
15:00 +9°C° 0 mm 3 mps 764 mmHg 62%
16:00 +9°C° 0 mm 3 mps 763 mmHg 61%
17:00 +8°C° 0 mm 3 mps 762 mmHg 66%
18:00 +7°C° 0 mm 3 mps 762 mmHg 71%
19:00 +4°C° 0 mm 3 mps 761 mmHg 76%
20:00 +4°C° 0 mm 4 mps 760 mmHg 79%
21:00 +4°C° 0 mm 4 mps 760 mmHg 81%
22:00 +4°C° 0 mm 4 mps 759 mmHg 83%
23:00 +3°C° 0 mm 5 mps 758 mmHg 86%

4 March, Thursday

Time Temperature Precipitation Wind Pressure Humidity
00:00 +3°C° 0 mm 5 mps 758 mmHg 88%
01:00 +2°C° 0 mm 5 mps 757 mmHg 90%
02:00 +2°C° 0 mm 5 mps 756 mmHg 92%
03:00 +2°C° 0 mm 5 mps 756 mmHg 93%
04:00 +2°C° 0 mm 5 mps 755 mmHg 95%
05:00 +2°C° 0 mm 5 mps 755 mmHg 94%
06:00 +2°C° 0 mm 5 mps 754 mmHg 94%
07:00 +2°C° 0 mm 5 mps 754 mmHg 94%
08:00 +2°C° 0 mm 5 mps 754 mmHg 91%
09:00 +3°C° 0 mm 4 mps 754 mmHg 87%
10:00 +3°C° 0 mm 4 mps 755 mmHg 84%
11:00 +3°C° 0 mm 4 mps 755 mmHg 84%
12:00 +3°C° 0 mm 4 mps 755 mmHg 85%
13:00 +1°C° 0 mm 5 mps 755 mmHg 85%
14:00 +1°C° 0.1 mm 5 mps 755 mmHg 88%
15:00 0°C° 0.1 mm 5 mps 755 mmHg 91%
16:00 -1°C° 0.1 mm 5 mps 755 mmHg 94%
17:00 -1°C° 0.2 mm 5 mps 755 mmHg 92%
18:00 -1°C° 0.2 mm 5 mps 755 mmHg 89%
19:00 -2°C° 0.2 mm 5 mps 755 mmHg 87%
20:00 -2°C° 0.1 mm 5 mps 755 mmHg 83%
21:00 -2°C° 0.1 mm 5 mps 756 mmHg 80%
22:00 -2°C° 0.1 mm 5 mps 756 mmHg 76%
23:00 -2°C° 0 mm 5 mps 756 mmHg 76%

5 March, Friday

Time Temperature Precipitation Wind Pressure Humidity
00:00 -2°C° 0 mm 4 mps 756 mmHg 76%
01:00 -3°C° 0 mm 4 mps 756 mmHg 76%
02:00 -3°C° 0 mm 4 mps 756 mmHg 75%
03:00 -3°C° 0 mm 4 mps 756 mmHg 74%
04:00 -3°C° 0 mm 4 mps 756 mmHg 72%
05:00 -2°C° 0 mm 3 mps 757 mmHg 71%
06:00 -2°C° 0 mm 3 mps 757 mmHg 70%
07:00 -2°C° 0 mm 3 mps 757 mmHg 69%
08:00 -2°C° 0.2 mm 4 mps 757 mmHg 66%
09:00 -1°C° 0.2 mm 4 mps 758 mmHg 62%
10:00 0°C° 0.2 mm 5 mps 758 mmHg 58%
11:00 -1°C° 0.2 mm 6 mps 758 mmHg 57%
12:00 -1°C° 0.2 mm 6 mps 759 mmHg 57%
13:00 -1°C° 0.2 mm 6 mps 759 mmHg 56%
14:00 -1°C° 0 mm 6 mps 759 mmHg 58%
15:00 -2°C° 0 mm 6 mps 760 mmHg 59%
16:00 -2°C° 0 mm 6 mps 760 mmHg 61%
17:00 -3°C° 0 mm 6 mps 760 mmHg 63%
18:00 -2°C° 0 mm 5 mps 761 mmHg 66%
19:00 -4°C° 0 mm 5 mps 761 mmHg 68%
20:00 -4°C° 0 mm 5 mps 762 mmHg 66%
21:00 -4°C° 0 mm 5 mps 763 mmHg 64%
22:00 -3°C° 0 mm 4 mps 763 mmHg 62%
23:00 -3°C° 0 mm 4 mps 764 mmHg 62%

6 March, Saturday

Time Temperature Precipitation Wind Pressure Humidity
00:00 -3°C° 0 mm 4 mps 764 mmHg 63%
01:00 -3°C° 0 mm 4 mps 764 mmHg 63%
02:00 -2°C° 0.1 mm 3 mps 765 mmHg 63%
03:00 -2°C° 0.1 mm 3 mps 765 mmHg 63%
04:00 -2°C° 0.1 mm 3 mps 765 mmHg 62%
05:00 -2°C° 0.1 mm 3 mps 766 mmHg 62%
06:00 -3°C° 0.1 mm 4 mps 766 mmHg 62%
07:00 -3°C° 0.1 mm 4 mps 767 mmHg 62%
08:00 -2°C° 0 mm 4 mps 767 mmHg 55%
09:00 -1°C° 0 mm 5 mps 767 mmHg 49%
10:00 -1°C° 0 mm 5 mps 767 mmHg 42%
11:00 -1°C° 0 mm 5 mps 768 mmHg 42%
12:00 0°C° 0 mm 5 mps 768 mmHg 41%
13:00 0°C° 0 mm 5 mps 768 mmHg 41%
14:00 0°C° 0 mm 5 mps 768 mmHg 43%
15:00 -1°C° 0 mm 5 mps 768 mmHg 46%
16:00 -1°C° 0 mm 5 mps 768 mmHg 49%
17:00 -1°C° 0 mm 5 mps 768 mmHg 54%
18:00 -2°C° 0 mm 5 mps 768 mmHg 59%
19:00 -4°C° 0 mm 5 mps 768 mmHg 65%
20:00 -4°C° 0 mm 5 mps 767 mmHg 67%
21:00 -2°C° 0 mm 5 mps 767 mmHg 70%
22:00 -3°C° 0 mm 6 mps 767 mmHg 72%
23:00 -3°C° 0 mm 6 mps 767 mmHg 71%
Show more

We Need Your Consent

Meteoprog and our Service Providers may store and access personal data such as cookies, device identifiers or other similar technologies on your device and process such data to personalise content and ads, as well as provide social media features and to analyse the traffic.

  • Store and/or access information on your device

    Cookies, device identifiers or other information can be stored or accessed on your device for the purposes indicated above.

  • Personalised ads and content, ad and content measurement, audience insights, and products development

    Ads and content can be personalised based on a profile. More data can be added to better personalise ads and content. Ad and content performance can be measured. Insights about the audience who saw the ads and content can be derived. Such data can be used to develop or improve user’s experience, systems and software.

By clicking ‘I Agree’ you will allow the use of indicated cookies, device identifiers, web beacons or other similar technologies. Your settings can be changed in the browser on your device.

For certain purposes, legitimate interests may be relied on, rather than consent. You can read more about this in our Privacy and Cookie Policy.